2017 Mackinac Island Eight Mile

Mackinac Island, MI
2017-09-09
Starts on: 2017-09-09
Where: Mackinac Island, MI
Categories: 8 Mile Walk 8 Mile Run Kid's Fun Run
Description: Run and walk the 8 mile perimeter of Mackinac Island in this great fall event! Kick off your fall running season with over 1600 participants running the shoreline of the Straits of Mackinac in one of Michigan's oldest races!
Overall 8 Mile Run
name bib rank time pace hometown
Jason Lafave 550 1 00:44:26 05:34 Sanford, MI
CarLee Stimpfel 1 2 00:44:33 05:35 Deford, MI
Brad Prather 769 3 00:44:58 05:38 ROANOKE, IN
Kyle Kiel 502 4 00:45:30 05:42 Williamsburg, MI
Kenneth Wall 1287 5 00:47:40 05:58 Flushing, MI
Matthew Masserant 614 6 00:49:19 06:10 WATERFORD, MI
Lee Kanitz 1224 7 00:49:26 06:11 Hessel, MI
Kevin Sweeney 1312 8 00:49:43 06:13 -, US
Christopher Stark 951 9 00:49:52 06:14 KINGSLEY, MI
Julia Viel 1034 10 00:51:08 06:24 BOULDER, CO
DANIEL WELCH 1068 11 00:51:11 06:24 LENOX, MI
Norm Kendrick 494 12 00:53:05 06:39 Superior, CO
Nick Adamo 1262 13 00:53:18 06:40 Unknown
Owen Goslin 349 14 00:53:31 06:42 CHEBOYGAN, MI
Mike Haverdink 1219 15 00:53:33 06:42 MACKINAC IS, MI
Justin Drew 245 16 00:53:40 06:43 Elm Grove, WI
Joseph Cantwell 138 17 00:54:15 06:47 ALLEGAN, MI
Dave McCauley 626 18 00:54:32 06:49 ROCHESTER, MI
Karl Koto 530 19 00:54:39 06:50 GROSSE PT PK, MI
Jill Burden 1201 20 00:55:01 06:53 TRAVERSE CITY, MI
Travis Sinke 899 21 00:55:45 06:59 MILWAUKEE, WI
Mike Maly 602 22 00:55:47 06:59 ADA, MI
Troy Dolmetsch 238 23 00:56:27 07:04 NORTHVILLE, MI
Joel Conzelmann 175 24 00:56:29 07:04 West Olive, MI
Erica Harrell 382 25 00:56:35 07:05 TRAVERSE CITY, MI
Christopher Douglas 240 26 00:56:43 07:06 Grand Blanc, MI
Erica Parkinson 1160 27 00:57:07 07:09 TRAVERSE CITY, MI
Scott Moore 663 28 00:57:17 07:10 Midland, MI
Eric Schacht 851 29 00:57:25 07:11 Williamsburg, MI
Jeffery DeSchaaf 224 30 00:57:34 07:12 GRAND HAVEN, MI
Samuel Langley 557 31 00:57:41 07:13 Westville, IN
Jason Brigham 106 32 00:57:55 07:15 Grayling, MI
Adam Kruzel 1152 33 00:58:01 07:16 Harbor Springs, MI
Matt Buckland 120 34 00:58:04 07:16 PORTLAND, MI
Tom Largo 1245 35 00:58:06 07:16 Mackinac Island, MI
Tonya Sears 869 36 00:58:29 07:19 HORTON, MI
Mike Benedict 1271 37 00:58:40 07:20 Flint, MI
Kenneth Stebbins 954 38 00:58:46 07:21 Midland, MI
Chad Schlosser 853 39 00:58:46 07:21 Flint, MI
Linda Humpert 439 40 00:58:55 07:22 Reese, MI
Paul Johns 468 41 00:59:12 07:24 MUNISING, MI
Jonathon Myers 680 42 00:59:25 07:26 CLARE, MI
Tom Conzelmann 176 43 00:59:27 07:26 SALINE, MI
Michael Vanvleet 1025 44 00:59:30 07:27 DEWITT, MI
Laura LaPorte 559 45 00:59:35 07:27 TRENTON, MI
Sloane Stimpfel 966 46 00:59:37 07:27 DEFORD, MI
Michele Chudzinski 152 47 00:59:51 07:29 Livonia, MI
Jordan Hicks 410 48 00:59:57 07:30 LIVONIA, MI
Wendy Snyder 930 49 01:00:00 07:30 MORAN, MI
Mike Shorna 889 50 01:00:10 07:32 HOLT, MI
Ross Williams 1092 51 01:00:11 07:32 HOMER, MI
Steven Hollington 425 52 01:00:17 07:33 GRAND LEDGE, MI
Michael Du Charme 1277 53 01:00:19 07:33 Saginaw, MI
Brian Klym 518 54 01:00:27 07:34 TRAVERSE CITY, MI
Kate Skarvan 902 55 01:00:37 07:35 LA JOLLA, CA
John Douglas 241 56 01:00:37 07:35 Sault Ste. Marie, MI
Matthew Brummette 116 57 01:00:53 07:37 Woodland, MI
Tom VanHimbergen 1024 58 01:01:02 07:38 MEQUON, WI
Paul Elwart 263 59 01:01:09 07:39 Imlay City, MI
Tim Humpert 440 60 01:01:26 07:41 Reese, MI
Glen Linsley 579 61 01:01:30 07:42 MASON, MI
Brian Aimesbury 14 62 01:01:31 07:42 Gaylord, MI
Jim Blocker 83 63 01:01:32 07:42 BATTLE CREEK, MI
John Jones 475 64 01:01:33 07:42 Davison, MI
Jessica Courtright 184 65 01:01:35 07:42 STANWOOD, MI
Michael Williams 1090 66 01:01:38 07:43 Greenville, MI
Stephanie Rasmussen 790 67 01:01:39 07:43 LUDINGTON, MI
Haley White 1078 68 01:01:47 07:44 WATERFORD, MI
Patrick Chimner 1306 69 01:01:48 07:44 Mackinac Island, MI
Chad Linsley 578 70 01:01:57 07:45 Mason, MI
Audrey Stempky 960 71 01:02:05 07:46 PETOSKEY, MI
Kate Kiekhaefer 501 72 01:02:10 07:47 Dafter, MI
Curtis Kesler 499 73 01:02:12 07:47 MIDLAND, MI
Luke Lori 587 74 01:02:13 07:47 SAINT JOSEPH, MI
Carrie King 504 75 01:02:16 07:47 SOUTH LYON, MI
Christopher Kiekhaefer 500 76 01:02:19 07:48 Dafter, MI
James Bergman 72 77 01:02:19 07:48 MIDLAND, MI
William Schroer 861 78 01:02:23 07:48 BATTLE CREEK, MI
Ashley Pattee 721 79 01:02:24 07:48 GRAND RAPIDS, MI
Kim Kaleto 483 80 01:02:29 07:49 GLADWIN, MI
James Ingraham 453 81 01:02:29 07:49 HARBOR SPGS, MI
Ken Guillard 1315 82 01:02:30 07:49 Saint Ignace, MI
Mark Arbogast 28 83 01:02:31 07:49 HESPERIA, MI
Abigail Watkins 1054 84 01:02:36 07:50 GRAND RAPIDS, MI
Cyrus Unvala 1292 85 01:02:41 07:51 Saint Ignace, MI
Timothy LaPorte 560 86 01:02:46 07:51 TRENTON, MI
Reed Wolf 1254 87 01:02:48 07:51 SAULT S MARIE, MI
Craig Wanrooy 1052 88 01:02:57 07:53 Hudsonville, MI
Kate Partlow 719 89 01:03:06 07:54 Clio, MI
LeRoy Newland 688 90 01:03:07 07:54 MIDLAND, MI
Mitchell Haveman 392 91 01:03:12 07:54 Grandville, MI
Charles Meyers 1156 92 01:03:14 07:55 EAST TAWAS, MI
Tiela Schurman 866 93 01:03:17 07:55 MIDLAND, MI
chad gilbert 336 94 01:03:17 07:55 hudsonville, MI
Chad Lettinga 1186 95 01:03:29 07:57 CALEDONIA, MI
Thomas Stimpfel 967 96 01:03:31 07:57 DEFORD, MI
Joseph Dear 209 97 01:03:31 07:57 Rochester, MI
Megan Retherford 798 98 01:03:34 07:57 PETOSKEY, MI
Paul Retherford 799 99 01:03:35 07:57 Petoskey, MI
Anya Mallinger 600 100 01:03:43 07:58 Sault Ste Marie, --

Next Page